Location: Altleiningen
(49.5078°N, 8.0741°E)
Time: 04:45:37
(UTC+00:00)

Cosmos 2227 - Pass Details

Date: 14 June 2025
Orbit: 834 x 859 km, 71.0° (Epoch: 12 July)

Event Time Altitude Azimuth Distance (km) Brightness Sun altitude
Exits shadow 22:33:40 24° 184° (S) 1,653 5.2 -16.2°
Maximum altitude 22:36:57 60° 113° (ESE) 950 4.3 -16.3°
Drops below altitude 10° 22:42:29 10° 34° (NE) 2,455 7.2 -16.5°
Sets 22:44:57 0° 31° (NNE) 3,393 8.1 -16.5°
